Weather History for KHVS - April, 2012

Change the Weather History Date:

Saturday, April 28, 2012

  Actual Average (KFLO) Record (KFLO)
Temperature  
Mean Temperature 66 °F 66 °F  
Max Temperature 69 °F 79 °F 97 °F (1981)
Min Temperature 62 °F 54 °F 40 °F (1967)
Degree Days  
Heating Degree Days 0 2  
Month to date heating degree days 119  
Since 1 July heating degree days 2495  
Cooling Degree Days 0 4  
Month to date cooling degree days 63  
Year to date cooling degree days 87  
Growing Degree Days 16 (Base 50)    
Moisture  
Dew Point 65 °F    
Average Humidity 93    
Maximum Humidity 100    
Minimum Humidity 78    
Precipitation  
Precipitation 0.00 in 0.08 in 1.00 in (2011)
Month to date precipitation 2.45  
Year to date precipitation 11.93  
Sea Level Pressure  
Sea Level Pressure 30.11 in    
Wind  
Wind Speed 4 mph (NE)    
Max Wind Speed 10 mph    
Max Gust Speed -    
Visibility 6 miles    
Events Fog , Rain , Thunderstorm    
T = Trace of Precipitation, MM = Missing Value Source: NWS Daily Summary

Daily Weather History Graph

Daily Weather History Graph

Search for Another Location

Airport or City:

Trip Planner

Search our weather history database for the weather conditions in past years. The results will help you decide how hot, cold, wet, or windy it might be!

Date:

Astronomy

Apr. 28, 2012 Rise Set
Actual Time 6:33 AM EDT 8:02 PM EDT
Civil Twilight 6:06 AM EDT 8:29 PM EDT
Nautical Twilight 5:34 AM EDT 9:01 PM EDT
Astronomical Twilight 5:01 AM EDT 9:35 PM EDT
Moon 12:12 PM EDT (4/28) 1:24 AM EDT (4/28)
Length of Visible Light 14h 23m
Length of Day
13h 29m
Waxing Crescent, 42% of the Moon is Illuminated
Apr 28
Waxing Crescent
Apr 29
First Quarter
May 5
Full
May 12
Last Quarter
May 20
New

Hourly Weather History & Observations

Time (EDT) Temp. Dew Point Humidity Pressure Visibility Wind Dir Wind Speed Gust Speed Precip Events Conditions
12:15 AM 69.8 °F 69.8 °F 100% 30.06 in 5.0 mi NE 5.8 mph - N/A Thunderstorm Mostly Cloudy
12:35 AM 68.0 °F 68.0 °F 100% 30.06 in 2.0 mi East 6.9 mph - N/A Rain , Thunderstorm Rain
12:55 AM 68.0 °F 68.0 °F 100% 30.07 in 4.0 mi East 4.6 mph - N/A Rain , Thunderstorm Heavy Thunderstorms and Rain
1:15 AM 68.0 °F 68.0 °F 100% 30.07 in 3.0 mi ENE 4.6 mph - N/A Rain , Thunderstorm Thunderstorms and Rain
1:35 AM 68.0 °F 68.0 °F 100% 30.07 in 4.0 mi NE 4.6 mph - N/A Rain , Thunderstorm Heavy Thunderstorms and Rain
1:55 AM 68.0 °F 68.0 °F 100% 30.06 in 4.0 mi Calm Calm - N/A Rain Light Rain
2:15 AM 68.0 °F 68.0 °F 100% 30.04 in 3.0 mi Calm Calm - N/A Thunderstorm Mostly Cloudy
2:35 AM 68.0 °F 68.0 °F 100% 30.05 in 2.5 mi ENE 3.5 mph - N/A   Mostly Cloudy
2:55 AM 68.0 °F 68.0 °F 100% 30.05 in 4.0 mi NE 4.6 mph - N/A   Overcast
3:15 AM 68.0 °F 68.0 °F 100% 30.05 in 3.0 mi Calm Calm - N/A   Overcast
3:35 AM 68.0 °F 68.0 °F 100% 30.05 in 3.0 mi Calm Calm - N/A   Overcast
3:55 AM 68.0 °F 68.0 °F 100% 30.06 in 3.0 mi Calm Calm - N/A   Overcast
4:15 AM 68.0 °F 68.0 °F 100% 30.07 in 2.0 mi Calm Calm - N/A   Overcast
4:35 AM 68.0 °F 68.0 °F 100% 30.07 in 2.5 mi Calm Calm - N/A   Overcast
4:55 AM 66.2 °F 66.2 °F 100% 30.07 in 5.0 mi Calm Calm - N/A   Overcast
5:15 AM 66.2 °F 66.2 °F 100% 30.08 in 5.0 mi North 4.6 mph - N/A   Overcast
5:35 AM 64.4 °F 62.6 °F 94% 30.08 in 10.0 mi North 5.8 mph - N/A   Overcast
5:55 AM 62.6 °F 62.6 °F 100% 30.09 in 10.0 mi NNE 3.5 mph - N/A   Mostly Cloudy
6:15 AM 62.6 °F 62.6 °F 100% 30.10 in 7.0 mi Calm Calm - N/A   Mostly Cloudy
6:55 AM 62.6 °F 62.6 °F 100% 30.10 in 2.5 mi ENE 4.6 mph - N/A   Overcast
7:15 AM 62.6 °F 62.6 °F 100% 30.11 in 1.0 mi NE 3.5 mph - N/A   Overcast
7:35 AM 62.6 °F 62.6 °F 100% 30.12 in 0.2 mi NNE 4.6 mph - N/A Fog Fog
7:55 AM 62.6 °F 62.6 °F 100% 30.12 in 0.2 mi NNE 5.8 mph - N/A Fog Fog
8:15 AM 64.4 °F 64.4 °F 100% 30.12 in 0.2 mi NNE 4.6 mph - N/A Fog Fog
8:35 AM 64.4 °F 64.4 °F 100% 30.13 in 0.2 mi NE 4.6 mph - N/A Fog Fog
9:35 AM 64.4 °F 64.4 °F 100% 30.14 in 1.0 mi NE 5.8 mph - N/A   Overcast
9:55 AM 64.4 °F 64.4 °F 100% 30.14 in 2.5 mi NE 4.6 mph - N/A   Overcast
10:15 AM 66.2 °F 66.2 °F 100% 30.14 in 3.0 mi ENE 5.8 mph - N/A   Overcast
10:35 AM 66.2 °F 66.2 °F 100% 30.15 in 3.0 mi ENE 4.6 mph - N/A   Overcast
10:55 AM 68.0 °F 68.0 °F 100% 30.14 in 3.0 mi ENE 3.5 mph - N/A   Overcast
11:15 AM 68.0 °F 68.0 °F 100% 30.14 in 2.5 mi NE 4.6 mph - N/A   Overcast
11:35 AM 68.0 °F 68.0 °F 100% 30.15 in 2.0 mi NE 5.8 mph - N/A   Overcast
11:55 AM 68.0 °F 68.0 °F 100% 30.15 in 5.0 mi ENE 6.9 mph - N/A   Overcast
12:15 PM 68.0 °F 66.2 °F 94% 30.14 in 4.0 mi NE 5.8 mph - N/A   Overcast
12:35 PM 68.0 °F 66.2 °F 94% 30.13 in 4.0 mi East 4.6 mph - N/A   Overcast
12:55 PM 68.0 °F 66.2 °F 94% 30.13 in 5.0 mi ENE 3.5 mph - N/A   Overcast
1:15 PM 68.0 °F 66.2 °F 94% 30.13 in 5.0 mi ENE 3.5 mph - N/A   Overcast
1:35 PM 69.8 °F 66.2 °F 88% 30.13 in 7.0 mi ENE 4.6 mph - N/A   Overcast
1:55 PM 69.8 °F 66.2 °F 88% 30.13 in 7.0 mi ENE 4.6 mph - N/A   Overcast
2:15 PM 69.8 °F 66.2 °F 88% 30.14 in 7.0 mi NNE 8.1 mph - N/A   Overcast
2:35 PM 68.0 °F 66.2 °F 94% 30.13 in 7.0 mi ENE 5.8 mph - N/A   Overcast
2:55 PM 69.8 °F 64.4 °F 83% 30.13 in 7.0 mi NE 5.8 mph - N/A   Overcast
3:15 PM 69.8 °F 64.4 °F 83% 30.12 in 7.0 mi NE 6.9 mph - N/A   Overcast
3:35 PM 69.8 °F 64.4 °F 83% 30.11 in 7.0 mi NE 8.1 mph - N/A   Overcast
3:55 PM 69.8 °F 64.4 °F 83% 30.11 in 7.0 mi NE 6.9 mph - N/A   Overcast
4:15 PM 68.0 °F 64.4 °F 88% 30.11 in 5.0 mi NE 8.1 mph - N/A   Overcast
4:35 PM 68.0 °F 64.4 °F 88% 30.11 in 5.0 mi NNE 10.4 mph - N/A   Overcast
4:55 PM 68.0 °F 64.4 °F 88% 30.11 in 5.0 mi NNE 8.1 mph - N/A   Overcast
5:15 PM 68.0 °F 64.4 °F 88% 30.11 in 5.0 mi NE 6.9 mph - N/A   Overcast
5:35 PM 69.8 °F 62.6 °F 78% 30.12 in 5.0 mi NNE 8.1 mph - N/A   Haze
5:55 PM 68.0 °F 62.6 °F 83% 30.12 in 5.0 mi NE 9.2 mph - N/A   Haze
6:15 PM 69.8 °F 62.6 °F 78% 30.12 in 7.0 mi NE 5.8 mph - N/A   Overcast
6:35 PM 69.8 °F 62.6 °F 78% 30.12 in 7.0 mi NE 5.8 mph - N/A   Overcast
6:55 PM 68.0 °F 62.6 °F 83% 30.12 in 7.0 mi NE 6.9 mph - N/A   Overcast
7:15 PM 68.0 °F 62.6 °F 83% 30.11 in 7.0 mi NE 3.5 mph - N/A   Overcast
7:35 PM 68.0 °F 62.6 °F 83% 30.11 in 10.0 mi ENE 4.6 mph - N/A   Mostly Cloudy
7:55 PM 66.2 °F 62.6 °F 88% 30.12 in 10.0 mi NNE 3.5 mph - N/A   Scattered Clouds
8:15 PM 64.4 °F 62.6 °F 94% 30.12 in 10.0 mi NNE 3.5 mph - N/A   Scattered Clouds
8:35 PM 66.2 °F 62.6 °F 88% 30.12 in 10.0 mi NE 3.5 mph - N/A   Mostly Cloudy
8:55 PM 64.4 °F 60.8 °F 88% 30.12 in 10.0 mi NE 4.6 mph - N/A   Mostly Cloudy
9:15 PM 64.4 °F 60.8 °F 88% 30.12 in 10.0 mi NE 4.6 mph - N/A   Overcast
9:35 PM 64.4 °F 60.8 °F 88% 30.12 in 10.0 mi Calm Calm - N/A   Overcast
9:55 PM 64.4 °F 60.8 °F 88% 30.13 in 10.0 mi ENE 4.6 mph - N/A   Overcast
10:15 PM 64.4 °F 60.8 °F 88% 30.13 in 10.0 mi Calm Calm - N/A   Overcast
10:35 PM 64.4 °F 60.8 °F 88% 30.13 in 10.0 mi Calm Calm - N/A   Overcast
10:55 PM 64.4 °F 60.8 °F 88% 30.14 in 10.0 mi North 3.5 mph - N/A   Overcast
11:15 PM 64.4 °F 60.8 °F 88% 30.14 in 10.0 mi NNE 4.6 mph - N/A   Overcast
11:35 PM 64.4 °F 59.0 °F 83% 30.14 in 10.0 mi North 3.5 mph - N/A   Overcast
11:55 PM 64.4 °F 59.0 °F 83% 30.15 in 10.0 mi NNE 3.5 mph - N/A   Overcast